Change the Weather History Date:

Thursday, January 3, 2013

  Actual Average Record
Temperature  
Mean Temperature 18 °F -  
Max Temperature 28 °F 33 °F 59 °F (2004)
Min Temperature 9 °F 17 °F -11 °F (2014)
Degree Days  
Heating Degree Days 46    
Moisture  
Dew Point 14 °F    
Average Humidity 70    
Maximum Humidity 78    
Minimum Humidity 59    
Precipitation  
Precipitation 0.00 in - - ()
Sea Level Pressure  
Sea Level Pressure 30.20 in    
Wind  
Wind Speed 6 mph (SW)    
Max Wind Speed 10 mph    
Max Gust Speed 21 mph    
Visibility 9 miles    
Events      
Averages and records for this station are not official NWS values.
T = Trace of Precipitation, MM = Missing Value Source: NWS Daily Summary

Daily Weather History Graph

Daily Weather History Graph

Search for Another Location

Airport or City:

Trip Planner

Search our weather history database for the weather conditions in past years. The results will help you decide how hot, cold, wet, or windy it might be!

Date:

Astronomy

Jan. 03, 2013 Rise Set
Actual Time 8:03 AM EST 5:21 PM EST
Civil Twilight 7:32 AM EST 5:52 PM EST
Nautical Twilight 6:58 AM EST 6:26 PM EST
Astronomical Twilight 6:24 AM EST 7:00 PM EST
Moon No Moon Rise 11:10 AM EST (1/3)
Length of Visible Light 10h 19m
Length of Day
9h 17m
Waning Gibbous, 65% of the Moon is Illuminated
Jan 3
Waning Gibbous
Jan 4
Last Quarter
Jan 11
New
Jan 18
First Quarter
Jan 26
Full

Hourly Weather History & Observations

Time (EST) Temp. Windchill Dew Point Humidity Pressure Visibility Wind Dir Wind Speed Gust Speed Precip Events Conditions
12:53 AM 10.0 °F 3.6 °F 1.9 °F 70% 30.22 in 10.0 mi South 3.5 mph - N/A   Clear
1:53 AM 9.0 °F 2.4 °F 1.9 °F 73% 30.21 in 10.0 mi South 3.5 mph - N/A   Clear
2:53 AM 9.0 °F 2.4 °F 1.0 °F 70% 30.21 in 10.0 mi SSW 3.5 mph - N/A   Clear
3:53 AM 9.0 °F 2.4 °F 1.0 °F 70% 30.21 in 10.0 mi SW 3.5 mph - N/A   Clear
4:53 AM 9.0 °F 0.6 °F 1.0 °F 70% 30.19 in 10.0 mi SSW 4.6 mph - N/A   Clear
5:53 AM 12.0 °F 2.7 °F 3.9 °F 70% 30.18 in 10.0 mi SSW 5.8 mph - N/A   Overcast
6:53 AM 16.0 °F 4.4 °F 6.1 °F 65% 30.18 in 10.0 mi SSW 9.2 mph - N/A   Overcast
7:53 AM 19.0 °F 7.5 °F 7.0 °F 59% 30.17 in 10.0 mi SW 10.4 mph - N/A   Overcast
8:53 AM 19.9 °F 9.3 °F 8.1 °F 60% 30.17 in 10.0 mi SW 9.2 mph - N/A   Overcast
9:53 AM 21.0 °F 10.6 °F 10.0 °F 63% 30.18 in 10.0 mi SW 9.2 mph - N/A   Scattered Clouds
10:03 AM 21.2 °F 11.7 °F 10.4 °F 63% 30.14 in 10.0 mi SW 8.1 mph - N/A   Mostly Cloudy
10:53 AM 23.0 °F 13.1 °F 12.9 °F 65% 30.20 in 10.0 mi WSW 9.2 mph 17.3 mph N/A   Overcast
11:53 AM 25.0 °F 15.5 °F 16.0 °F 69% 30.20 in 10.0 mi WSW 9.2 mph - N/A   Overcast
12:53 PM 26.1 °F 16.8 °F 19.0 °F 75% 30.18 in 7.0 mi WSW 9.2 mph 20.7 mph N/A   Overcast
1:14 PM 26.6 °F 17.5 °F 19.4 °F 74% 30.13 in 7.0 mi WSW 9.2 mph 17.3 mph N/A   Overcast
1:53 PM 27.0 °F 18.7 °F 19.9 °F 75% 30.17 in 6.0 mi WSW 8.1 mph 17.3 mph N/A   Haze
2:06 PM 28.4 °F 20.4 °F 21.2 °F 74% 30.13 in 6.0 mi WSW 8.1 mph 17.3 mph N/A   Haze
2:53 PM 28.0 °F 20.0 °F 21.0 °F 75% 30.18 in 6.0 mi WSW 8.1 mph - N/A   Haze
3:31 PM 28.4 °F 19.7 °F 21.2 °F 74% 30.15 in 7.0 mi WSW 9.2 mph 18.4 mph N/A   Overcast
3:53 PM 28.9 °F 19.8 °F 21.0 °F 72% 30.19 in 6.0 mi WSW 10.4 mph 16.1 mph N/A   Haze
4:53 PM 28.9 °F 19.8 °F 21.9 °F 75% 30.21 in 6.0 mi WSW 10.4 mph 16.1 mph N/A   Haze
5:53 PM 28.9 °F 19.8 °F 21.9 °F 75% 30.22 in 8.0 mi SW 10.4 mph - N/A   Overcast
6:53 PM 28.9 °F 21.9 °F 23.0 °F 78% 30.24 in 9.0 mi WSW 6.9 mph - N/A   Overcast
7:53 PM 28.9 °F 22.8 °F 23.0 °F 78% 30.25 in 9.0 mi WSW 5.8 mph - N/A   Overcast
8:53 PM 28.9 °F 23.9 °F 21.0 °F 72% 30.25 in 10.0 mi WSW 4.6 mph - N/A   Overcast
9:53 PM 28.9 °F 22.8 °F 19.0 °F 67% 30.25 in 10.0 mi WSW 5.8 mph - N/A   Overcast
10:53 PM 28.9 °F 21.1 °F 19.0 °F 67% 30.25 in 10.0 mi SW 8.1 mph - N/A   Overcast
11:53 PM 28.9 °F 21.9 °F 19.9 °F 69% 30.25 in 10.0 mi WSW 6.9 mph - N/A   Overcast